PDT,Max TemperatureF,Mean TemperatureF,Min TemperatureF,Max Dew PointF,MeanDew PointF,Min DewpointF,Max Humidity, Mean Humidity, Min Humidity, Max Sea Level PressureIn, Mean Sea Level PressureIn, Min Sea Level PressureIn, Max VisibilityMiles, Mean VisibilityMiles, Min VisibilityMiles, Max Wind SpeedMPH, Mean Wind SpeedMPH, Max Gust SpeedMPH,PrecipitationIn, CloudCover, Events, WindDirDegrees
2013-4-1,82,69,57,43,39,30,56,37,16,30.01,29.95,29.87,10,10,10,18,10,28,0.00,0,,287
2013-4-2,86,70,55,47,39,31,59,37,15,29.98,29.92,29.85,10,10,10,9,7,,0.00,0,,269
2013-4-3,91,75,59,49,40,32,58,33,12,29.99,29.93,29.88,10,10,8,8,5,,0.00,0,,268
2013-4-4,91,76,62,45,39,30,44,28,11,29.96,29.91,29.84,10,10,10,21,5,22,0.00,0,,251
2013-4-5,91,76,61,47,41,33,56,33,13,29.94,29.88,29.81,10,10,10,22,10,30,0.00,0,,264
2013-4-6,89,74,60,50,45,40,55,38,18,29.94,29.84,29.76,10,10,7,17,9,23,0.00,0,,278
2013-4-7,89,72,57,50,44,37,62,37,17,29.84,29.75,29.64,10,10,10,14,5,,0.00,0,,256
2013-4-8,73,65,57,47,41,37,55,39,27,29.68,29.56,29.52,10,4,1,43,27,55,0.00,4,,253
2013-4-9,80,66,53,39,30,15,57,32,9,29.90,29.80,29.70,10,10,10,21,13,31,0.00,0,,288
2013-4-10,84,66,50,38,26,12,59,25,7,30.07,29.98,29.91,10,10,10,18,5,25,0.00,0,,285
2013-4-11,93,74,57,46,32,25,50,25,10,29.91,29.77,29.64,10,10,10,16,6,22,0.00,0,,152
2013-4-12,89,70,53,46,39,29,72,35,12,29.77,29.72,29.67,10,10,10,9,4,,0.00,0,,119
2013-4-13,95,77,59,54,40,30,47,29,10,29.76,29.70,29.63,10,10,10,22,9,31,0.00,0,,208
2013-4-14,89,74,60,53,45,38,67,41,21,29.68,29.63,29.56,10,10,10,25,9,30,0.00,0,,235
2013-4-15,81,70,60,46,42,37,58,41,24,29.73,29.69,29.65,10,10,8,32,15,40,0.00,0,,271
2013-4-16,73,64,55,39,35,30,51,37,21,29.88,29.78,29.70,10,10,6,32,22,43,0.00,0,,264
2013-4-17,75,63,51,35,24,7,49,27,7,30.07,29.99,29.90,10,10,8,20,12,26,0.00,0,,310
2013-4-18,78,62,46,28,20,11,50,22,8,30.23,30.15,30.09,10,10,10,15,6,21,0.00,0,,323
2013-4-19,84,66,48,30,20,12,33,19,7,30.16,30.05,29.91,10,10,8,9,5,,0.00,0,,241
2013-4-20,93,72,54,39,27,17,40,20,6,29.94,29.88,29.82,10,10,8,9,4,,0.00,0,,259
2013-4-21,96,76,57,38,34,30,47,23,11,29.95,29.87,29.80,10,10,10,15,4,25,0.00,0,,147
2013-4-22,95,74,55,49,42,36,72,33,14,29.86,29.78,29.68,10,10,10,14,5,16,0.00,0,,151
2013-4-23,91,76,62,55,33,20,58,25,8,29.88,29.79,29.70,10,10,10,16,6,17,0.00,0,,323
2013-4-24,91,76,60,59,43,24,68,37,13,29.85,29.77,29.68,10,10,10,17,7,22,0.00,0,,147
2013-4-25,87,74,61,49,42,34,52,36,16,29.95,29.87,29.78,10,10,9,22,15,30,0.00,0,,253
2013-4-26,91,76,61,53,48,44,65,41,21,30.08,30.01,29.95,10,10,10,7,3,,0.00,0,,156
2013-4-27,100,80,62,47,36,18,52,25,6,30.01,29.93,29.83,10,10,10,10,6,,0.00,0,,260
2013-4-28,104,84,64,45,31,4,36,19,4,29.84,29.76,29.66,10,10,10,13,6,,0.00,0,,276
2013-4-29,106,86,68,46,32,14,35,17,4,29.71,29.66,29.57,10,9,2,18,6,24,0.00,0,,259
2013-4-30,100,86,72,47,35,13,37,18,8,29.67,29.63,29.58,10,10,10,18,13,26,0.00,0,,229